This demonstration page uses our WeatherBlox Daily Observations layout. Learn more.

39.29038, -76.61219

Hourly Observations for April 30, 2018

Temp ( °F °C ) Dew Point ( °F °C ) Humidity (%) Winds ( mph kmh ) Pressure ( in mb ) Visibility ( mi km ) Precip ( " mm )
12:54 am 00:54 undefined 47 8.3 31 -0.6 54 54 undefined N/A 30.15 1021 N/A 0 0
1:54 am 01:54 undefined 46 7.8 31 -0.6 56 56 undefined N/A 30.14 1021 N/A 0 0
2:54 am 02:54 undefined 46 7.8 30 -1.1 54 54 undefined N/A 30.14 1021 N/A 0 0
3:54 am 03:54 undefined 46 7.8 26 -3.3 46 46 undefined N/A 30.15 1021 N/A 0 0
4:54 am 04:54 undefined 45 7.2 21 -6.1 39 39 undefined N/A 30.16 1021 N/A 0 0
5:54 am 05:54 undefined 45 7.2 19 -7.2 35 35 undefined N/A 30.17 1022 N/A 0 0
6:54 am 06:54 undefined 44 6.7 24 -4.4 45 45 undefined N/A 30.19 1022 N/A 0 0
7:54 am 07:54 undefined 47 8.3 22 -5.6 37 37 undefined N/A 30.21 1023 N/A 0 0
8:54 am 08:54 undefined 50 10 17 -8.3 27 27 undefined N/A 30.22 1023 N/A 0 0
9:54 am 09:54 undefined 54 12.2 14 -10 20 20 undefined N/A 30.19 1023 N/A 0 0
10:54 am 10:54 undefined 58 14.4 14 -10 18 18 undefined N/A 30.2 1023 N/A 0 0
11:54 am 11:54 undefined 60 15.6 14 -10 16 16 undefined N/A 30.16 1022 N/A 0 0
12:54 pm 12:54 undefined 63 17.2 13 -10.6 14 14 undefined N/A 30.14 1021 N/A 0 0
1:54 pm 13:54 undefined 67 19.4 20 -6.7 17 17 undefined N/A 30.12 1020 N/A 0 0
2:54 pm 14:54 undefined 69 20.6 18 -7.8 14 14 undefined N/A 30.09 1019 N/A 0 0
3:54 pm 15:54 undefined 71 21.7 18 -7.8 13 13 undefined N/A 30.06 1018 N/A 0 0
4:54 pm 16:54 undefined 71 21.7 17 -8.3 13 13 undefined N/A 30.04 1017 N/A 0 0
5:54 pm 17:54 undefined 71 21.7 18 -7.8 13 13 undefined N/A 30.01 1016 N/A 0 0
6:54 pm 18:54 undefined 71 21.7 20 -6.7 14 14 undefined N/A 30.02 1017 N/A 0 0
7:54 pm 19:54 undefined 69 20.6 20 -6.7 15 15 undefined N/A 30.04 1017 N/A 0 0
8:54 pm 20:54 undefined 67 19.4 23 -5 19 19 undefined N/A 30.04 1017 N/A 0 0
9:54 pm 21:54 undefined 65 18.3 24 -4.4 21 21 undefined N/A 30.05 1018 N/A 0 0
10:54 pm 22:54 undefined 63 17.2 26 -3.3 25 25 undefined N/A 30.07 1018 N/A 0 0
11:54 pm 23:54 undefined 60 15.6 28 -2.2 30 30 undefined N/A 30.08 1019 N/A 0 0

Powered by AerisWeather